Theta_e
322 323 324 325 325 323 322 323 324 323 323 324 324 323 322 322 320 313 313 312 308 310 313 312 313 313 312 313 314 313 310 311 314 314 314 313 312 313 313 313 314 314 315 315 315 315 316 317 317 316 316 316 317 319 320 320 322 322 324 325 325 326 327 327 327 327 328 328 328 329 329 329 329 329 327 325 325 324 324 325 325 324 325 326 326 325
322 325 325 324 323 322 322 323 322 321 321 322 323 323 321 320 320 315 313 312 309 310 314 313 312 312 312 313 314 313 311 312 313 313 315 314 313 313 313 313 313 314 314 315 315 315 316 316 316 317 317 317 316 317 317 318 319 321 322 323 324 325 326 326 325 325 326 326 326 326 326 327 328 328 327 325 324 323 323 324 324 324 325 325 326 326
324 325 324 323 323 322 322 321 320 319 319 321 321 322 323 320 318 316 312 310 309 312 315 314 312 314 313 313 314 314 312 312 313 313 314 314 313 313 313 314 314 314 314 314 315 315 315 315 316 316 316 317 316 316 316 317 317 319 320 321 322 323 324 325 325 325 325 325 325 325 325 326 326 326 325 324 324 324 325 325 325 324 324 324 325 326
325 325 323 324 323 322 320 318 319 319 317 320 320 322 324 317 318 321 313 309 310 311 313 313 313 314 315 314 315 316 314 313 313 312 312 313 313 313 313 314 314 314 314 314 314 314 314 315 315 316 316 316 317 316 316 316 316 317 317 318 319 320 322 323 324 324 324 324 325 325 326 326 326 327 326 326 326 326 327 327 326 325 324 324 325 326
324 324 323 323 322 321 319 318 319 318 317 318 319 323 322 315 317 320 313 310 312 311 310 311 315 317 318 318 318 317 314 312 312 311 311 312 313 313 313 313 314 314 315 314 314 314 314 314 314 315 315 316 316 316 316 316 316 315 315 315 317 318 319 320 321 322 323 325 325 326 326 326 326 327 326 327 326 326 327 327 327 326 326 325 324 325
323 323 322 322 322 320 319 319 319 320 320 318 317 319 321 317 316 315 312 312 315 315 311 311 319 323 319 319 320 318 315 312 312 311 311 312 312 313 313 314 315 315 315 315 315 315 314 314 314 314 314 315 315 315 315 315 315 314 314 314 315 316 317 318 319 320 322 323 324 325 325 325 326 325 325 325 325 325 325 325 326 326 327 325 323 324
321 321 321 321 322 321 320 319 319 321 322 321 317 316 318 319 317 314 312 314 317 318 313 310 317 321 318 317 317 317 315 314 313 312 312 312 312 312 314 315 315 315 315 316 315 315 315 314 314 314 314 314 314 314 314 315 314 313 313 314 314 315 315 316 317 318 320 322 323 323 324 324 324 324 323 323 323 325 325 324 325 325 326 325 323 324
319 319 322 321 322 322 321 321 320 320 323 323 319 315 316 317 317 316 314 315 316 315 313 311 313 315 316 316 315 314 314 314 314 313 312 312 312 312 315 316 316 316 316 316 316 315 315 314 314 314 314 313 313 313 313 313 313 313 313 312 313 314 314 314 315 317 318 319 321 322 322 323 324 324 323 322 323 324 323 323 324 325 326 325 323 322
318 320 321 321 322 322 322 322 319 320 322 319 316 316 317 316 316 316 314 314 313 313 316 315 312 314 317 315 313 313 314 316 316 314 314 313 313 313 315 317 317 317 317 316 317 316 316 315 314 315 314 314 314 313 313 313 313 313 312 312 312 313 313 314 314 316 316 317 319 320 321 321 323 323 323 324 324 325 324 324 325 326 326 326 323 321
317 319 321 321 322 322 322 320 318 321 319 313 312 315 315 314 314 313 314 313 311 314 319 317 313 316 320 318 314 312 313 316 317 316 316 315 314 314 315 317 317 317 317 317 317 317 316 316 315 315 314 314 314 314 314 313 313 313 313 313 313 312 313 313 313 315 315 316 317 318 319 319 321 322 323 324 324 326 327 328 328 327 326 326 324 322
314 316 319 320 320 319 319 318 318 318 314 310 311 313 312 313 313 313 313 312 314 318 318 314 313 315 318 319 317 315 314 315 316 316 316 315 314 315 316 317 317 317 317 317 317 317 317 317 315 315 314 314 314 314 313 313 313 313 313 313 313 312 312 312 312 313 314 315 316 317 318 318 319 320 322 323 323 325 328 329 329 328 327 327 326 324
314 316 318 316 315 316 315 315 314 312 310 311 313 312 313 314 314 313 312 312 319 322 313 309 311 313 317 319 316 316 314 313 315 316 316 316 315 316 317 317 317 317 317 317 317 317 317 317 316 315 315 314 314 314 313 313 313 313 313 313 312 312 312 312 312 313 313 314 315 316 317 318 318 319 321 321 322 324 326 329 329 328 327 327 327 325
316 316 314 313 313 315 317 315 312 310 312 314 313 314 317 316 316 317 316 315 320 319 309 307 310 312 316 318 316 316 313 312 314 314 316 316 316 317 317 317 317 317 317 317 317 317 317 317 317 316 316 315 314 314 313 313 313 313 313 312 312 312 312 312 312 312 313 313 313 314 316 317 318 319 320 320 321 323 326 329 329 328 328 327 328 327
317 315 312 313 313 315 317 317 313 310 313 315 313 316 319 318 318 321 319 317 319 317 309 307 310 313 316 316 315 315 314 314 313 313 313 314 315 316 316 316 317 316 317 317 317 317 317 317 317 316 316 316 315 314 314 313 313 313 313 313 312 312 312 312 312 312 313 312 313 314 315 316 317 318 320 320 321 323 326 329 330 329 328 326 327 327
320 319 315 314 314 315 317 317 314 311 312 314 314 317 319 319 321 324 322 321 320 315 309 309 313 318 318 315 312 311 311 313 312 312 311 311 312 314 315 314 315 315 315 317 317 317 317 316 316 316 315 315 315 315 315 314 314 314 313 313 312 312 312 312 312 312 313 313 313 314 315 315 317 318 320 320 322 324 326 329 330 330 329 328 326 325
321 319 314 313 314 315 316 316 313 312 313 314 314 316 318 318 318 318 317 316 316 314 311 310 314 317 315 313 312 311 310 310 311 311 311 311 313 313 313 314 315 315 315 315 315 316 317 316 315 315 314 314 314 314 314 314 314 314 314 313 313 313 313 313 313 313 313 314 314 315 315 315 317 318 320 321 323 325 326 328 329 329 329 329 327 325
321 316 312 312 313 314 316 315 313 315 316 313 313 315 315 314 313 315 314 310 311 317 317 313 313 315 314 316 315 314 314 311 310 310 310 311 313 312 312 314 315 316 315 315 314 314 315 314 313 314 313 313 313 313 314 314 314 314 314 313 313 313 313 313 313 313 313 314 315 316 316 316 317 319 319 321 323 325 326 327 329 329 328 329 328 325
318 314 310 311 313 313 313 314 313 314 315 313 314 315 313 313 313 314 316 313 312 318 318 313 314 316 316 318 316 313 315 314 312 311 310 310 311 312 313 314 315 314 314 314 313 313 313 312 313 313 313 314 314 314 314 313 314 314 314 313 313 313 313 313 313 313 313 313 314 315 315 316 318 319 320 322 324 326 327 328 329 329 329 328 328 326
316 315 310 309 312 311 310 313 315 312 311 312 314 315 315 318 317 315 317 317 317 319 319 314 312 313 315 317 315 313 314 314 314 314 312 311 310 311 312 314 314 313 313 313 313 313 313 312 313 313 313 313 313 314 314 313 313 313 313 313 313 313 313 312 313 313 313 313 313 314 315 316 318 320 322 324 326 328 328 328 328 329 328 327 328 327
314 316 313 309 309 311 310 314 316 314 311 310 312 314 314 316 318 316 316 317 319 320 320 317 313 314 315 315 314 315 314 313 314 314 314 313 312 310 311 311 312 311 312 313 313 313 313 313 314 313 313 313 313 314 313 313 312 312 313 313 312 312 312 312 313 313 313 313 313 313 314 316 318 321 323 325 327 328 328 328 328 327 327 327 327 325
312 314 314 310 309 311 313 314 317 316 313 310 313 315 313 313 313 315 315 314 316 319 319 318 318 317 313 311 313 315 314 314 315 314 315 314 311 310 310 310 310 310 311 311 312 313 313 313 313 313 313 313 313 314 313 312 312 312 313 312 312 312 312 312 313 312 313 313 313 313 314 316 318 321 323 326 327 328 328 328 328 326 326 328 326 324
312 313 313 311 310 312 314 312 313 315 314 313 314 315 315 314 313 317 319 314 312 315 315 314 318 318 312 310 311 312 313 314 312 312 313 311 309 310 311 310 310 311 311 311 311 312 312 312 313 312 313 312 313 313 313 312 312 312 312 312 312 312 312 313 313 313 313 313 313 314 314 316 319 322 324 325 327 328 328 328 327 326 326 325 324 325
311 313 312 312 312 312 311 308 307 310 312 313 314 314 315 315 314 318 321 316 312 313 311 311 314 317 314 313 312 311 311 311 308 308 309 310 310 311 311 311 311 311 312 312 312 312 312 312 313 312 312 312 312 312 312 312 312 312 312 313 313 313 313 313 313 313 313 313 314 315 316 318 320 323 324 325 326 327 327 327 327 326 325 323 324 326
311 313 312 312 312 310 309 307 306 308 311 313 313 313 314 315 316 315 314 313 314 314 313 313 316 316 314 314 312 308 307 307 306 307 308 309 311 311 310 310 310 311 311 311 311 311 311 312 312 312 312 312 312 312 312 312 313 313 313 313 313 313 314 313 313 314 313 314 314 314 316 318 320 322 324 324 325 325 325 326 326 327 326 323 325 327
313 314 313 313 313 313 312 311 310 309 310 312 312 312 312 314 315 312 310 311 314 315 315 316 319 318 313 313 311 308 307 307 306 307 307 309 310 309 309 309 310 311 310 310 310 310 311 312 312 312 312 312 312 312 312 313 313 313 313 313 313 313 313 313 313 313 312 312 313 313 314 315 316 318 319 320 321 321 323 325 325 327 326 324 325 325
314 314 313 314 316 317 316 315 314 312 311 312 313 312 311 313 314 313 312 313 314 316 315 316 319 318 312 311 312 311 311 310 308 308 308 308 309 309 310 310 310 311 311 311 311 311 311 311 312 312 312 312 312 312 312 313 313 313 313 313 313 312 312 312 312 312 312 312 312 312 312 312 313 314 314 315 314 315 319 323 325 327 326 325 325 322
313 313 314 315 316 317 317 316 315 314 312 312 313 312 312 312 313 314 314 315 316 316 315 315 317 318 314 311 312 312 313 312 310 308 308 308 309 309 310 310 310 311 311 311 311 311 311 311 312 312 312 312 313 313 313 313 313 313 312 312 312 312 312 312 312 312 312 312 312 311 311 312 312 313 312 312 311 313 319 323 325 327 325 324 323 321
314 313 314 316 315 316 316 314 313 314 314 314 313 313 313 312 313 314 315 316 316 316 317 316 315 316 316 313 312 313 314 312 309 307 308 309 310 310 310 311 311 311 311 311 311 311 311 311 311 312 312 313 313 313 313 312 312 312 312 311 312 312 312 312 312 312 311 311 311 311 311 311 311 311 312 312 312 315 319 321 322 324 324 323 323 323
315 315 315 316 314 313 314 312 312 314 313 314 314 314 313 313 313 313 314 315 316 316 318 318 316 316 316 314 313 313 313 311 309 308 308 309 310 311 311 311 311 312 312 312 311 311 311 311 311 311 312 312 312 312 312 312 312 311 311 312 312 312 312 312 312 311 311 311 310 310 310 309 310 311 311 310 313 317 319 320 321 322 323 324 324 323
315 315 315 314 312 311 312 312 313 313 313 313 314 313 313 313 312 312 313 314 315 316 316 316 317 316 315 315 314 313 314 312 309 308 308 309 311 311 311 311 312 312 312 312 312 312 311 311 311 311 311 311 312 312 311 311 311 311 312 312 312 313 312 312 312 311 310 310 309 309 310 308 310 315 315 313 317 322 322 321 322 321 321 322 323 322
313 314 313 313 311 310 310 312 313 313 313 313 313 313 313 313 313 313 313 313 314 315 315 315 316 316 315 315 313 312 313 312 310 308 309 309 311 311 310 311 311 312 313 313 312 313 312 312 311 311 311 311 311 311 311 311 312 312 312 312 313 313 312 312 312 311 310 309 308 310 311 309 310 317 320 318 319 320 319 319 321 320 319 320 322 322
312 311 311 313 312 310 309 311 312 312 312 313 313 313 313 313 314 314 314 313 314 314 315 315 315 315 314 314 312 311 310 311 310 310 311 311 311 311 311 311 312 312 312 313 313 313 313 313 312 311 312 311 311 311 311 311 311 312 312 313 313 313 313 312 312 312 311 310 309 309 311 312 313 316 319 319 319 318 318 319 320 321 320 320 321 320
311 310 311 313 313 310 308 310 311 312 313 314 314 314 313 313 313 313 314 314 313 314 315 315 315 315 314 312 312 311 310 311 312 311 312 313 313 312 312 312 312 312 312 312 313 313 313 313 312 311 311 311 311 311 311 311 311 311 312 313 313 313 312 312 312 312 312 311 310 309 309 312 316 317 316 316 317 318 319 319 319 320 320 319 319 318
312 311 312 313 313 310 309 311 313 314 315 316 317 316 313 312 313 313 313 313 313 313 314 315 315 315 314 312 312 312 312 312 313 312 312 312 313 313 313 313 313 313 312 312 313 313 313 313 312 311 311 311 311 311 311 311 311 311 312 312 312 312 312 312 312 312 312 312 311 311 309 311 315 317 316 316 317 317 318 318 318 318 318 317 317 317
313 312 312 313 312 310 309 312 315 315 316 317 319 317 313 311 312 313 313 313 312 313 313 314 314 314 314 313 312 312 313 312 313 313 313 313 313 313 314 314 314 313 313 312 313 313 313 313 312 311 311 311 311 311 311 311 311 311 311 312 312 312 312 312 312 312 312 312 312 311 310 311 312 313 313 315 318 318 317 317 317 317 317 316 317 317
312 313 312 311 311 310 311 313 316 316 316 316 317 314 312 312 312 312 313 313 312 312 312 313 313 313 314 313 312 311 312 312 312 312 312 313 313 313 314 314 314 314 313 313 312 313 313 313 313 311 311 311 311 311 311 311 311 311 311 311 312 312 312 312 312 312 312 312 312 312 311 311 312 312 312 313 315 315 316 316 316 316 316 316 316 315
312 312 312 310 309 310 312 313 315 315 315 316 315 311 311 313 312 312 314 314 312 312 312 312 312 312 313 313 312 311 311 310 311 311 312 312 313 313 313 313 313 314 313 313 313 312 313 313 313 311 311 311 311 311 311 311 311 311 311 311 311 311 312 312 312 312 312 311 311 312 312 312 311 312 312 312 313 313 314 314 314 315 315 315 314 311
312 312 313 312 308 309 311 312 313 314 315 316 316 312 311 312 312 313 314 315 314 313 312 312 312 312 312 313 313 312 310 310 311 312 312 312 312 312 312 312 313 313 313 313 313 312 312 312 312 311 311 311 311 311 311 311 311 311 311 311 311 311 311 312 312 312 312 311 311 311 311 312 312 312 313 313 314 314 314 314 314 315 314 313 310 309
312 311 312 312 308 308 311 313 313 314 314 314 315 312 310 311 313 313 313 314 315 314 313 312 312 312 313 313 313 312 310 311 312 313 313 313 312 312 312 312 312 312 312 312 312 312 311 311 311 311 311 311 311 311 311 311 311 311 311 311 311 311 311 311 311 311 311 311 311 311 310 311 311 312 312 313 313 314 315 314 314 313 312 310 308 308
311 310 311 312 310 309 312 313 312 313 313 313 313 310 309 311 313 312 314 315 314 313 313 313 313 313 313 313 312 311 311 312 313 313 313 312 311 311 311 311 311 311 311 311 311 311 311 310 310 311 311 311 311 310 311 311 311 311 311 311 311 311 311 310 310 311 311 311 311 310 310 310 310 310 310 310 311 313 314 313 312 311 310 309 308 307
310 310 311 312 311 310 311 313 312 311 312 313 310 307 308 311 312 313 316 315 312 311 311 312 312 312 312 312 311 311 311 312 312 312 312 311 310 310 310 310 310 310 310 310 310 310 310 310 310 311 310 311 311 310 310 311 311 311 311 311 311 310 310 310 310 310 310 310 310 310 310 310 310 309 309 309 309 310 311 311 311 310 309 308 307 306
310 310 310 311 311 311 310 311 311 311 312 312 308 306 309 312 313 314 314 312 310 310 310 310 311 311 311 311 311 311 311 311 311 311 310 309 309 309 310 310 310 309 309 309 309 309 310 310 310 311 311 310 311 310 310 310 311 311 311 310 310 310 309 310 310 309 309 309 309 309 309 309 309 309 309 309 309 309 309 309 310 310 309 308 306 305
311 311 310 311 311 311 311 310 312 313 312 309 307 306 308 312 313 313 310 309 310 311 310 310 311 311 311 310 310 311 310 310 309 309 309 308 308 309 310 310 309 309 309 310 310 310 310 310 310 311 310 310 310 310 310 310 310 310 310 309 309 309 309 309 309 309 309 309 309 309 309 309 308 308 308 308 308 308 308 308 308 309 309 307 305 304
311 311 312 311 311 311 312 312 312 312 310 308 309 310 309 310 311 311 311 311 311 311 311 312 312 312 311 310 310 310 310 309 309 308 308 308 308 308 309 310 309 309 310 310 310 310 310 310 310 310 310 310 310 310 310 309 309 309 309 309 309 309 309 309 309 309 309 309 309 309 309 308 308 308 308 307 307 307 307 307 307 307 308 306 305 303
311 310 311 312 311 311 312 312 309 308 308 308 310 311 310 309 310 310 311 312 312 312 312 312 312 312 311 311 310 310 309 309 309 309 308 308 307 308 308 309 309 309 309 309 309 310 309 309 309 310 310 310 309 309 309 309 309 309 309 309 309 309 309 309 309 309 309 309 309 309 308 308 308 308 307 307 306 306 306 306 306 306 306 305 304 303
309 308 309 311 311 310 310 309 307 306 307 307 309 310 310 310 310 310 311 311 312 312 312 312 312 311 311 311 310 310 310 309 309 309 309 308 308 308 308 308 309 309 309 309 309 309 309 309 309 309 309 309 309 309 309 309 309 309 309 309 309 309 309 309 309 309 309 309 309 308 308 308 308 308 307 307 306 306 305 305 305 305 305 304 304 303
307 307 308 311 311 310 311 310 308 308 307 307 308 309 309 310 310 310 311 312 312 312 312 311 311 311 310 310 310 310 310 310 309 309 309 308 309 308 308 309 309 309 309 309 309 309 309 309 309 309 309 309 309 309 309 309 309 309 309 309 309 309 309 309 309 309 309 309 309 308 308 308 308 308 307 307 306 306 305 305 305 304 304 303 303 303
307 307 309 311 310 310 310 308 306 307 308 307 308 309 309 310 310 310 311 312 312 312 312 311 311 311 310 310 310 309 309 309 309 309 309 309 309 309 309 309 308 308 309 309 309 309 309 308 308 308 309 309 309 309 309 309 309 309 309 309 309 309 309 309 309 308 308 308 308 308 308 308 308 308 307 307 306 306 305 305 304 304 304 304 303 303
307 308 310 311 310 310 309 306 305 307 307 306 307 309 310 311 311 310 310 311 310 311 311 310 310 310 310 310 309 309 309 309 309 309 309 309 309 309 309 309 308 308 308 308 308 308 308 308 308 308 309 309 309 309 309 309 309 309 309 308 309 308 308 308 308 308 308 308 308 308 308 308 308 307 307 307 307 306 305 305 304 303 303 302 302 301
307 309 309 309 311 311 309 307 308 310 310 308 308 310 311 311 310 310 310 310 310 310 310 310 310 310 310 309 310 309 309 309 309 309 308 308 308 308 308 308 308 308 308 308 308 308 308 308 308 308 308 308 308 308 308 308 308 308 308 308 308 308 307 307 307 307 307 307 307 307 307 307 307 307 307 307 307 306 305 304 304 303 302 301 300 299
308 310 308 309 311 311 309 307 309 311 311 310 309 311 311 311 310 310 310 311 310 310 310 309 310 310 310 309 309 309 309 309 309 309 308 308 308 308 308 308 308 308 308 307 307 307 307 308 308 308 308 308 308 308 308 307 307 307 307 307 307 307 307 307 307 307 307 306 306 307 306 306 306 306 306 306 306 306 305 304 303 302 301 300 299 298
Wind_Speed
13 8 6 9 11 12 13 11 8 6 7 9 8 7 4 4 4 2 4 3 1 5 7 7 10 13 13 16 16 9 8 11 11 13 15 17 19 21 23 25 26 26 24 22 23 25 25 25 25 25 25 26 27 29 30 31 31 31 31 30 30 29 28 28 28 28 27 27 27 27 27 26 25 24 24 23 23 23 23 21 21 20 19 18 17 15
10 10 11 12 12 13 13 10 8 5 5 6 6 6 5 4 4 4 4 3 2 4 7 7 10 13 12 14 17 10 7 12 14 15 16 18 20 21 21 24 26 26 24 22 24 25 26 27 27 26 26 27 28 29 31 32 32 32 32 32 32 30 29 30 30 29 28 28 28 28 27 27 26 26 25 25 24 24 23 22 22 22 21 20 18 17
9 12 14 15 15 13 10 9 8 6 5 6 6 4 4 4 3 4 5 3 3 4 6 8 10 14 13 13 17 14 11 15 18 18 19 19 20 23 22 22 23 24 24 24 26 26 26 27 28 28 29 28 28 28 30 32 32 33 33 33 33 32 32 32 31 31 30 29 28 26 26 26 26 25 25 24 24 23 22 23 22 22 22 21 20 18
8 10 14 17 17 14 9 9 9 6 4 4 6 6 5 5 4 5 4 4 3 3 5 8 9 12 13 12 16 18 17 18 19 21 24 23 22 25 26 23 22 22 23 24 26 27 28 29 29 30 31 30 29 30 30 31 32 34 34 35 35 35 35 34 33 32 31 29 27 26 25 25 25 24 24 24 24 24 23 24 24 22 21 20 20 19
5 7 16 18 15 15 12 12 11 6 3 4 6 8 5 6 8 6 1 1 4 3 2 5 8 10 12 13 14 13 12 14 17 18 21 25 27 27 27 26 25 25 25 24 24 26 28 31 31 30 31 31 31 32 32 32 32 32 33 34 35 36 36 35 35 33 32 31 29 27 27 27 27 27 26 26 27 27 27 27 26 23 21 18 19 20
6 12 19 17 13 16 13 12 13 9 6 5 5 8 8 9 10 6 1 2 5 5 3 2 7 8 7 11 13 9 7 9 11 14 18 24 27 29 29 29 29 29 28 28 26 26 26 30 31 30 31 32 33 33 33 31 30 30 31 33 34 35 35 35 36 35 33 33 32 31 31 31 31 31 31 31 30 29 29 28 26 24 22 18 18 20
4 11 16 16 14 15 10 8 13 12 8 6 6 8 9 10 10 8 4 2 5 4 0 1 6 6 4 7 9 7 8 9 9 11 15 19 23 28 30 30 30 29 29 30 29 27 25 27 31 31 31 33 33 34 33 31 30 30 31 32 32 33 34 35 36 36 35 35 35 34 33 33 33 34 34 33 31 29 29 27 25 23 22 20 20 21
7 13 12 15 15 12 10 8 11 14 9 5 8 12 11 10 11 10 6 4 3 4 4 3 3 6 8 6 4 4 8 11 10 10 12 15 21 28 30 29 29 28 28 28 29 28 26 26 30 32 32 33 33 32 32 32 32 32 32 32 32 32 33 35 35 36 37 37 37 36 35 35 35 35 34 32 30 29 27 25 24 23 23 22 21 22
10 16 14 15 13 10 12 10 12 16 9 1 7 12 11 9 8 6 4 3 1 3 7 5 4 5 9 5 2 3 10 15 15 12 11 13 20 28 30 30 29 28 27 27 27 28 26 26 28 32 33 32 33 32 32 32 32 33 33 32 32 33 33 34 34 36 37 38 37 37 38 37 37 36 34 33 31 28 26 24 24 24 23 23 22 22
6 13 18 16 11 11 12 10 15 16 6 4 8 8 6 5 3 2 2 2 1 4 8 6 8 6 10 7 4 4 9 14 14 10 9 13 20 26 28 28 27 28 28 28 27 27 27 27 27 30 32 32 33 33 32 32 33 34 34 34 34 34 34 34 35 36 37 38 38 38 40 39 38 37 35 34 33 30 27 25 24 23 23 22 22 22
4 8 14 9 5 7 10 11 12 13 9 12 10 9 8 4 2 2 1 1 2 6 5 5 9 6 8 8 7 7 6 9 11 10 9 12 18 24 25 24 24 25 27 28 28 28 28 29 29 30 31 32 33 32 32 33 34 35 35 36 36 36 36 36 36 36 36 37 38 39 40 40 40 38 37 36 35 32 29 28 27 25 23 21 22 22
6 8 7 3 6 12 14 9 5 9 14 12 8 8 8 4 2 2 1 2 6 6 1 3 8 9 10 6 5 7 5 6 10 12 13 13 18 26 27 25 25 25 26 26 27 29 30 31 32 32 32 33 34 34 33 34 34 34 35 36 38 39 39 38 38 37 37 37 38 39 40 40 40 38 38 38 36 34 31 30 29 26 24 23 24 25
6 5 3 4 8 13 14 8 4 5 8 5 7 9 6 4 3 4 3 3 7 4 1 2 4 8 12 8 9 10 6 6 10 12 15 14 18 26 26 25 27 28 29 27 25 26 29 31 33 34 35 36 37 37 35 34 33 33 34 36 38 40 41 40 39 38 38 38 39 39 40 40 39 38 39 38 36 35 32 30 30 28 27 26 26 29
5 1 3 6 6 11 14 10 7 5 5 5 8 8 5 5 5 6 5 3 5 3 2 1 2 6 10 5 10 13 9 13 15 16 20 18 20 25 23 23 25 28 30 29 27 26 27 29 30 32 35 37 39 39 38 37 34 33 34 35 37 39 40 40 40 39 39 39 39 39 39 39 39 39 40 39 37 36 33 31 31 30 29 28 28 31
7 1 8 9 5 11 12 9 10 8 6 6 5 4 4 6 5 5 5 5 3 2 2 3 2 6 4 2 4 8 8 13 16 18 21 22 23 24 24 25 25 26 27 28 28 28 27 28 29 30 32 34 37 38 39 40 38 36 34 35 36 37 38 39 40 41 41 40 40 39 38 38 38 39 40 39 37 36 34 32 31 29 29 29 29 29
7 2 7 7 6 14 13 10 15 13 7 4 1 1 3 3 2 1 1 2 1 1 3 5 4 5 2 6 9 7 5 8 14 18 20 24 28 27 27 28 27 26 26 26 28 29 29 28 28 28 29 29 31 32 35 38 40 40 36 35 36 35 35 37 38 40 41 41 40 39 38 37 38 39 39 39 37 36 34 32 30 29 28 29 29 28
7 3 4 5 6 13 12 13 18 15 8 4 3 4 2 1 2 1 1 2 1 5 4 5 6 6 4 9 11 11 9 5 7 12 16 24 30 27 28 30 29 28 28 28 28 27 27 27 26 26 25 25 26 28 30 33 37 41 39 37 37 36 36 36 36 38 39 40 40 39 38 37 37 38 38 38 36 35 33 31 29 28 28 29 29 28
7 6 2 2 7 8 5 11 14 7 5 6 6 7 4 2 2 2 3 1 3 7 4 4 8 6 4 6 3 7 12 9 7 8 10 17 22 23 30 36 35 32 31 30 27 24 24 25 25 25 23 23 23 25 27 30 34 39 40 38 38 37 37 37 35 34 34 36 38 38 38 38 37 37 37 35 34 33 32 30 28 29 29 29 29 29
8 8 2 1 5 5 3 8 9 3 1 2 4 9 6 2 4 4 3 3 4 7 5 4 6 6 8 7 2 4 8 9 10 8 6 9 13 17 26 34 33 31 32 32 29 25 23 23 24 24 24 23 22 23 25 28 33 38 40 39 38 38 37 36 34 32 32 33 35 37 38 37 37 36 35 33 32 32 31 30 29 30 31 30 30 30
6 6 4 2 2 5 4 6 8 6 2 1 3 8 3 2 3 4 3 1 3 6 6 3 2 5 7 8 9 9 8 8 10 8 6 10 14 14 18 23 23 23 24 26 28 27 26 25 25 26 26 24 22 21 22 25 31 36 38 37 37 37 36 36 35 34 34 34 34 36 36 36 36 35 34 32 32 32 31 30 30 31 31 31 32 31
3 3 6 3 1 6 7 6 9 12 9 5 7 8 4 2 1 1 3 2 2 5 5 4 5 5 2 4 10 14 13 13 11 8 6 8 10 10 11 12 13 12 13 15 19 23 24 25 25 27 27 24 22 21 21 24 28 32 34 34 34 34 34 34 35 35 36 36 36 36 36 36 35 34 33 32 32 32 31 30 31 31 31 32 33 31
1 3 9 8 6 7 5 1 2 8 10 9 8 9 10 8 5 4 6 5 3 4 3 3 7 6 3 3 6 10 10 9 7 4 4 6 7 8 7 8 10 12 13 14 15 17 19 20 22 24 25 23 22 21 22 24 26 29 30 30 31 31 32 33 34 34 35 35 36 36 36 36 35 34 33 32 33 33 31 32 32 32 32 32 32 33
3 6 8 8 7 4 1 3 3 1 6 7 6 8 10 8 8 8 6 4 4 4 1 1 6 5 4 4 5 7 6 5 7 7 8 11 13 13 14 13 13 16 16 17 18 17 17 19 21 22 23 23 22 22 23 24 25 26 27 28 29 30 30 31 31 31 32 33 34 34 34 34 33 33 32 32 33 33 33 33 32 33 33 30 31 33
4 6 7 8 5 2 3 2 3 3 2 7 8 8 9 10 10 4 1 1 4 5 4 2 7 6 4 5 5 5 4 6 10 11 13 16 17 16 15 13 11 13 14 15 16 16 17 18 20 21 21 21 21 22 23 23 24 24 25 26 27 27 28 28 28 30 30 31 33 33 33 33 33 33 33 33 33 33 33 33 32 34 32 29 31 32
5 5 7 10 7 4 3 3 4 4 6 9 8 6 7 9 6 2 1 2 2 7 9 6 10 9 2 4 3 2 3 6 8 10 12 15 14 12 9 8 9 10 10 10 11 12 14 15 17 19 19 19 20 20 21 21 21 22 23 24 24 25 26 27 27 29 30 31 33 33 33 34 33 33 33 34 34 33 34 32 32 35 32 29 32 30
5 6 7 10 10 10 10 7 6 7 6 4 5 8 11 11 11 7 3 4 6 9 11 9 11 7 4 3 2 3 5 6 5 6 8 9 8 7 6 7 7 8 8 8 8 9 11 13 15 16 17 17 18 18 18 18 19 21 21 22 23 24 25 25 25 26 27 29 31 32 33 34 34 35 34 35 35 34 33 33 33 34 32 32 32 30
3 4 6 10 11 10 9 6 8 12 10 9 13 17 16 15 16 11 4 8 11 7 8 12 14 8 2 5 3 3 4 4 2 3 4 3 2 3 4 6 7 7 9 8 7 8 9 10 13 14 15 15 16 16 18 19 20 21 22 22 23 23 22 22 23 23 25 26 28 29 31 32 33 34 34 34 34 33 31 32 32 34 34 33 33 32
3 5 10 12 9 3 3 6 11 16 17 18 20 20 17 16 16 12 11 16 11 4 8 14 14 15 12 7 6 4 5 2 1 3 4 2 2 3 5 7 7 8 10 11 11 12 10 9 10 12 14 15 16 17 18 19 20 21 21 22 21 21 20 20 20 21 22 24 25 27 28 30 30 31 31 31 30 29 29 31 32 36 37 35 34 33
3 7 11 10 5 5 5 8 12 13 11 11 15 18 17 18 18 17 20 22 13 8 13 11 9 16 19 11 10 10 7 4 5 7 5 4 7 9 11 13 12 10 11 12 13 15 13 10 8 9 13 14 16 17 18 19 19 20 20 20 19 19 19 19 19 19 21 22 23 24 25 25 25 25 25 26 27 27 28 29 30 32 33 33 33 31
3 6 8 10 6 6 4 8 12 12 8 7 13 16 18 21 23 23 24 23 16 15 20 13 7 17 19 12 11 12 15 15 10 9 11 13 15 16 16 18 18 16 14 14 14 14 14 12 9 7 9 12 15 16 17 17 18 19 19 19 18 18 18 19 19 18 20 21 21 21 21 21 22 23 22 23 25 27 28 28 29 27 26 29 33 30
2 5 9 10 7 4 2 6 10 12 11 10 13 16 19 23 24 23 21 15 11 16 25 19 14 18 15 8 8 12 18 18 13 13 19 22 21 19 18 21 21 18 17 16 15 14 14 14 12 9 8 9 11 13 15 16 17 17 18 19 18 18 17 18 18 17 18 19 19 19 20 19 21 24 25 24 24 26 27 28 29 28 28 30 33 31
1 3 7 9 7 2 2 6 9 8 6 6 11 18 24 23 20 19 18 16 16 20 23 18 15 16 8 6 9 10 11 11 12 17 24 29 29 24 21 25 26 22 19 19 18 18 16 16 16 14 13 11 11 12 12 13 15 17 17 18 17 17 17 17 17 16 17 18 18 19 20 19 21 24 26 26 25 26 27 28 29 30 31 32 33 32
4 5 6 8 7 3 2 6 9 7 4 6 12 18 22 20 17 16 17 20 22 20 15 12 15 13 2 7 8 9 9 11 13 17 23 31 35 32 28 28 29 27 23 21 24 24 22 20 19 19 20 18 16 14 12 13 15 15 15 16 17 18 18 18 17 16 16 17 18 19 20 21 23 24 25 25 26 27 28 29 30 32 33 33 32 32
7 8 7 6 6 5 5 6 8 6 7 9 7 11 19 21 22 22 21 23 24 20 15 14 15 10 2 5 9 10 11 17 20 23 27 29 32 34 34 35 35 34 30 26 28 30 26 22 18 18 20 20 17 15 14 15 15 15 16 17 18 19 19 19 18 17 16 17 18 20 21 22 25 27 26 25 26 27 28 30 32 33 34 34 33 32
10 9 5 3 5 5 5 6 6 9 11 6 2 8 19 24 24 23 21 20 19 18 18 18 19 16 9 7 9 9 15 22 26 31 34 33 34 36 39 42 42 39 36 31 31 32 29 23 20 18 17 17 16 16 16 17 17 18 19 20 20 20 20 20 20 19 18 18 19 21 22 24 26 28 28 28 29 30 31 33 35 35 35 35 33 32
12 9 4 2 3 4 4 7 9 7 6 3 2 4 13 17 16 14 13 14 15 16 17 20 24 23 18 13 11 12 17 20 23 31 35 33 35 38 41 43 41 38 37 36 34 33 31 26 22 17 13 13 14 14 15 16 17 18 19 19 19 20 20 21 21 21 20 19 19 21 23 25 27 28 29 30 31 33 35 36 37 36 36 34 33 32
12 11 6 4 2 2 5 8 6 5 7 7 5 5 8 10 11 11 9 13 17 18 17 20 22 21 19 19 20 18 15 13 15 25 32 32 34 38 39 40 39 37 39 41 38 35 32 28 22 17 14 14 14 13 14 14 16 17 18 19 19 20 21 22 22 22 21 20 20 20 21 24 27 29 30 31 33 34 35 35 35 34 33 33 33 34
9 9 11 9 3 2 6 6 5 5 7 7 4 7 11 13 13 13 9 11 11 16 20 21 20 20 18 19 22 17 11 9 9 14 26 36 39 39 38 38 40 41 42 43 42 38 33 26 21 19 18 18 16 15 15 14 14 16 17 18 19 19 20 22 22 22 22 21 20 20 20 22 24 27 29 30 31 32 32 32 32 31 31 32 34 35
5 3 7 8 3 4 7 6 7 9 7 2 5 7 15 21 18 12 5 8 4 16 27 25 20 20 19 19 19 14 8 7 8 15 30 36 33 33 34 35 36 37 38 40 40 37 31 25 22 22 22 21 20 18 17 16 15 15 16 16 18 19 20 20 20 21 21 21 20 20 21 21 21 23 24 25 26 28 30 30 30 31 32 33 34 36
6 3 5 7 6 7 8 6 5 5 3 3 6 9 18 25 21 12 4 6 4 16 28 24 19 22 22 20 17 11 8 10 12 20 30 27 21 24 26 24 25 27 29 32 33 32 29 26 24 24 24 23 23 21 19 18 16 16 15 15 17 18 19 18 18 18 19 20 20 20 20 20 21 21 22 22 23 25 27 29 30 31 32 34 35 36
5 5 6 8 6 5 6 7 4 3 2 4 5 13 25 24 14 8 6 2 6 15 21 19 23 28 25 21 18 14 20 30 30 27 25 18 15 16 16 15 17 19 22 25 25 24 23 22 21 20 20 21 21 20 19 18 16 15 15 15 16 16 16 15 15 16 16 17 18 19 19 20 20 21 21 22 22 24 26 27 29 30 32 34 35 37
8 7 6 7 6 5 4 4 3 5 7 9 8 15 25 17 5 7 6 7 9 11 12 14 19 22 20 22 26 27 33 37 34 29 25 19 15 12 11 12 11 10 12 14 14 13 12 11 12 12 13 15 16 17 16 15 15 15 14 13 13 12 13 13 13 14 14 14 15 16 17 18 19 19 20 21 22 24 25 26 27 29 31 33 35 37
9 9 8 7 6 4 3 5 4 7 8 23 20 9 9 6 3 9 9 7 7 8 8 11 9 8 13 20 26 32 33 28 24 24 24 21 15 10 9 8 4 2 4 5 5 6 7 7 8 9 10 12 13 14 15 15 15 14 12 11 11 11 12 12 12 12 12 12 13 13 14 15 16 17 18 19 21 23 24 25 27 29 31 33 36 38
7 9 9 7 8 7 7 10 7 5 9 31 26 10 12 10 6 12 13 7 6 7 7 8 7 6 10 14 16 23 26 24 22 20 18 16 15 12 11 9 5 4 4 5 6 6 6 6 7 8 9 10 12 13 13 13 12 11 10 10 10 10 10 10 10 10 10 10 11 11 12 13 13 15 16 17 19 21 23 25 26 29 31 34 36 38
12 10 4 4 9 8 4 5 3 3 15 30 18 9 23 25 11 12 16 11 9 11 9 7 8 9 10 10 10 12 14 16 16 14 12 13 15 15 15 13 11 8 5 6 6 5 5 5 6 6 7 8 9 10 10 11 11 10 9 9 8 7 7 6 6 6 7 7 8 9 10 12 12 13 14 16 17 19 21 23 25 28 31 33 36 38
7 7 2 2 5 4 4 2 4 5 15 26 13 7 26 34 17 11 15 12 10 14 13 10 10 12 14 14 12 11 11 11 11 11 10 10 11 12 13 13 10 8 8 8 6 5 5 6 6 7 8 8 9 10 10 11 10 10 9 8 8 7 5 4 3 3 3 4 6 7 9 10 11 12 13 14 16 17 19 21 23 26 29 32 35 38
2 6 3 3 7 6 6 6 8 6 14 25 20 11 22 34 27 15 13 14 15 15 15 13 14 16 17 15 13 13 14 14 14 13 13 12 11 11 11 11 11 11 10 8 7 6 7 7 8 8 9 11 12 12 12 11 10 10 9 8 7 6 5 4 3 3 4 5 6 7 8 9 10 11 12 14 15 16 18 20 22 24 27 31 34 37
5 7 6 5 8 8 5 3 10 14 18 25 26 20 21 33 36 25 17 18 20 18 17 18 19 19 17 16 15 14 15 16 16 15 15 14 13 12 13 13 13 12 10 8 7 7 7 8 9 11 12 13 13 12 12 11 10 9 8 7 6 6 5 4 5 4 5 6 7 7 8 9 10 11 12 13 14 15 17 18 20 23 26 28 31 34
11 11 9 8 8 6 2 1 7 9 9 17 27 29 27 32 38 33 22 19 21 20 19 20 20 19 18 17 16 14 15 16 15 15 15 15 14 13 13 13 12 11 10 8 8 7 8 10 11 12 13 12 12 11 10 10 9 9 8 7 7 7 6 6 6 5 6 6 7 8 8 9 9 11 12 13 14 15 16 17 18 21 23 25 28 32
12 10 6 6 9 8 4 8 13 9 5 15 31 36 32 30 35 35 27 20 20 21 21 21 20 18 17 17 16 15 15 15 15 15 15 15 14 14 14 13 12 11 10 9 9 9 10 12 12 13 12 12 11 11 10 10 9 9 8 8 8 7 7 7 7 7 8 8 8 9 9 9 10 11 12 13 14 15 16 17 18 20 22 24 27 30
14 12 9 9 10 10 11 23 28 19 9 16 32 38 33 30 32 35 33 27 24 22 21 21 20 19 19 18 17 16 15 14 15 16 16 16 16 15 14 13 12 11 10 10 10 11 12 13 13 12 11 11 11 10 10 10 9 9 9 9 9 9 9 9 9 10 10 10 10 10 10 10 10 11 12 14 15 16 16 17 19 20 22 24 26 29
Wind_Direction
158 158 187 191 181 180 180 186 187 166 183 189 191 218 223 220 209 175 229 239 338 293 271 259 267 267 262 267 267 245 228 238 237 242 243 239 240 240 241 242 240 241 242 241 240 238 235 233 232 229 226 224 223 222 222 223 223 224 225 227 228 227 227 228 228 227 228 230 232 233 235 236 236 238 238 238 236 234 235 236 239 242 242 245 252 254
175 194 202 188 170 168 178 183 177 166 179 180 186 207 207 227 227 198 222 201 158 257 265 269 278 273 265 268 270 252 217 237 236 233 239 238 240 243 243 243 243 243 242 241 242 240 238 234 232 231 228 226 225 223 223 223 224 225 226 228 230 230 230 231 231 230 229 231 233 235 237 238 238 239 239 239 240 239 239 240 242 244 244 244 246 251
191 210 200 178 164 165 174 169 159 154 166 182 181 203 222 208 220 229 210 169 171 223 265 285 286 278 275 272 273 264 241 244 241 236 241 241 242 245 246 245 244 246 244 241 243 243 241 239 235 233 231 229 227 226 226 226 226 227 228 229 230 231 232 233 233 233 232 233 235 238 240 242 243 242 241 242 243 243 245 247 247 247 247 244 242 247
194 211 188 165 159 160 157 157 158 144 155 188 176 197 227 175 192 234 190 169 210 228 277 290 288 282 278 269 269 264 248 245 244 243 246 244 245 248 250 250 247 247 247 244 245 246 245 243 239 236 234 232 230 229 228 227 227 228 228 229 231 232 233 234 235 235 236 236 237 239 241 242 242 242 241 239 239 239 240 244 246 248 248 244 240 243
166 157 159 157 158 160 153 161 164 144 163 211 200 207 212 177 205 237 160 273 261 230 233 274 280 272 261 253 258 256 238 236 239 240 245 243 245 248 248 250 248 246 247 247 248 249 247 244 241 239 238 236 234 232 231 230 228 227 228 229 231 232 234 235 235 236 237 238 238 237 237 236 236 236 234 232 232 232 233 237 241 244 249 249 241 240
155 143 154 160 165 163 156 166 173 164 172 205 225 226 218 196 209 217 120 317 266 234 171 213 267 262 248 243 243 239 228 231 225 221 233 239 241 243 243 246 248 247 248 249 250 252 250 244 241 241 239 238 236 235 234 234 232 231 230 230 231 232 234 235 235 236 236 238 238 236 234 232 231 231 230 229 229 230 232 235 237 240 246 251 246 240
153 159 162 163 165 165 160 169 178 175 181 204 197 207 218 208 207 200 169 206 249 260 82 192 257 270 290 260 239 229 239 241 219 212 227 231 234 237 240 245 247 247 249 250 250 251 252 244 236 237 237 236 236 235 235 235 234 233 232 231 231 232 233 234 235 235 236 237 238 238 236 234 233 232 232 232 231 232 233 234 237 240 243 248 247 240
151 168 169 165 163 166 174 177 179 180 190 203 169 181 202 204 207 203 186 215 256 310 291 228 238 280 283 269 232 223 251 253 235 222 226 228 231 234 239 244 246 246 248 250 250 250 251 245 235 233 234 233 235 235 236 236 235 234 233 233 232 232 233 234 234 235 236 236 237 239 238 236 235 234 235 236 235 236 236 236 237 239 241 243 245 242
148 168 171 163 161 176 189 179 170 177 187 169 152 176 195 194 201 197 181 220 302 319 264 205 150 258 268 252 149 195 243 250 244 231 224 227 232 234 237 243 246 247 246 247 249 248 249 247 239 235 235 235 236 236 236 237 237 237 237 236 235 233 233 234 234 234 235 236 236 238 238 237 235 234 235 237 238 239 239 240 238 238 238 240 244 242
150 175 170 163 169 186 181 160 166 182 190 116 128 136 147 150 146 146 181 183 121 262 254 193 162 231 271 256 200 201 235 243 248 242 224 227 236 238 238 241 245 247 245 244 245 245 245 244 241 238 237 237 237 237 237 238 238 239 239 238 237 235 234 234 234 234 235 236 236 237 238 237 236 235 235 236 238 237 238 240 239 237 236 240 246 243
84 151 166 166 172 154 132 131 162 177 145 122 124 115 111 110 96 122 206 127 211 250 247 167 166 209 273 262 218 216 219 221 237 246 237 233 239 242 240 240 243 245 246 244 242 242 243 242 240 239 237 236 236 235 235 236 237 238 238 237 237 236 235 234 235 235 235 236 236 236 237 237 237 236 235 236 237 236 236 237 239 239 236 240 247 243
87 134 163 153 133 121 112 113 129 143 138 131 138 134 119 113 137 159 155 188 232 243 239 171 177 201 242 256 220 215 194 202 229 237 236 231 234 240 241 241 242 244 248 247 243 242 243 243 241 239 237 235 233 233 232 234 235 236 237 237 236 235 234 234 234 235 235 236 237 237 237 237 237 237 236 237 237 236 235 236 239 240 238 239 245 245
136 142 127 124 151 144 134 127 102 136 155 153 152 145 129 123 158 203 190 205 238 228 160 216 179 211 241 253 244 235 210 219 238 241 238 230 229 237 240 241 241 242 246 247 246 245 244 245 243 241 239 237 235 233 232 233 235 236 237 236 236 236 235 234 235 235 236 237 238 237 237 238 237 237 237 238 237 236 236 236 238 239 238 238 240 246
140 45 146 148 175 177 163 152 152 168 179 175 160 155 156 144 165 214 201 217 254 220 184 141 118 249 262 263 246 249 243 231 234 241 246 246 243 242 241 242 242 240 242 243 244 245 245 244 245 244 243 241 240 238 236 236 235 236 237 236 237 237 236 236 235 235 236 236 238 238 238 238 238 237 238 237 237 236 236 237 238 240 241 241 239 245
149 147 187 172 162 180 182 163 146 135 148 179 173 160 171 162 182 212 199 212 229 139 168 160 164 247 259 39 262 265 268 249 242 246 253 258 255 250 249 250 250 246 242 239 239 240 243 245 246 246 246 245 245 244 241 239 236 236 236 235 236 237 237 237 236 236 236 236 237 238 238 238 237 237 238 238 238 237 237 237 238 240 242 245 246 247
161 129 168 157 145 169 172 153 142 138 155 196 138 149 212 184 171 182 187 213 168 81 190 188 231 258 286 319 292 269 265 253 249 252 258 261 257 254 255 253 252 251 246 240 238 239 243 247 249 249 250 250 250 249 246 242 237 235 235 234 234 236 237 238 238 237 236 236 237 238 238 238 237 237 238 238 238 238 238 238 238 239 240 244 249 249
173 127 132 128 151 172 167 157 161 160 155 161 178 189 189 71 73 142 157 72 82 253 226 191 246 281 305 292 272 246 242 229 232 243 248 253 254 255 258 254 248 248 247 244 243 243 245 248 249 250 252 253 254 253 250 246 239 233 232 232 232 232 233 235 237 237 237 237 238 238 239 238 237 238 238 238 237 237 238 237 236 237 238 240 246 249
153 113 74 120 156 171 144 146 168 178 126 136 188 176 126 33 341 236 230 150 188 245 249 202 242 268 269 272 252 224 239 237 229 232 235 248 251 251 254 253 250 251 253 254 255 254 252 251 249 251 253 256 257 255 251 247 240 231 228 228 229 229 231 233 236 237 238 239 239 240 239 238 238 238 239 238 237 236 236 235 234 233 235 236 240 244
133 111 81 258 162 153 102 140 169 233 238 154 166 152 145 232 208 187 219 218 207 239 259 223 239 253 231 233 232 204 228 240 246 243 241 256 251 245 250 253 257 262 264 266 268 270 267 260 256 255 255 258 259 256 252 246 237 228 223 224 226 228 231 234 236 237 238 240 240 240 239 239 239 239 238 237 236 235 235 234 232 231 233 233 235 239
135 122 148 233 169 143 156 178 181 191 207 353 145 159 173 275 202 187 192 207 218 233 254 247 233 247 220 213 225 226 227 239 246 244 241 251 251 255 264 265 267 270 269 268 268 269 268 262 257 253 251 253 255 255 251 242 232 224 221 223 225 227 231 233 235 236 237 239 240 239 239 238 238 238 237 236 235 235 234 233 232 231 232 232 234 238
121 115 138 140 163 167 181 203 196 185 174 165 173 177 186 179 178 250 204 204 232 228 244 255 250 250 197 179 216 222 228 233 238 244 237 247 265 277 281 276 276 279 277 277 271 266 264 257 250 247 245 245 246 247 244 235 226 221 221 224 225 228 232 234 236 237 238 239 240 239 239 238 238 237 236 236 235 235 235 233 231 232 231 231 235 237
123 121 134 145 177 187 188 289 213 192 186 182 181 183 189 183 167 196 205 193 205 232 231 255 270 258 168 160 215 217 226 228 226 249 256 261 279 280 271 271 287 295 290 287 284 275 267 258 249 244 242 242 240 237 234 228 222 221 223 225 228 230 233 236 237 238 239 240 240 240 240 238 238 237 236 235 234 234 234 231 231 231 229 232 236 232
80 105 124 144 168 177 110 15 11 254 204 200 210 203 196 193 189 204 218 178 174 224 194 339 283 263 155 154 208 216 222 213 203 221 253 268 276 278 279 283 289 288 282 277 276 275 268 259 250 242 238 239 236 229 226 224 221 223 224 226 229 232 234 236 238 239 240 240 240 240 239 238 238 236 235 235 234 234 233 230 231 231 231 236 233 224
122 111 112 124 135 92 50 47 31 15 217 211 227 217 198 206 205 200 304 173 179 207 190 217 264 255 156 159 202 224 233 233 230 235 252 269 282 289 288 293 293 286 283 276 270 268 266 259 250 241 235 233 232 226 222 221 221 223 225 228 231 233 236 239 240 242 242 241 241 240 239 239 237 236 235 235 234 233 231 230 229 229 231 234 227 222
160 140 134 133 139 146 138 172 201 206 209 210 211 198 204 221 205 116 9 238 216 212 196 209 254 252 174 147 190 209 231 244 244 248 258 267 284 303 309 316 316 308 304 290 274 267 261 257 251 245 238 232 230 227 224 224 226 228 231 235 238 241 243 244 245 245 244 244 243 242 241 240 238 236 236 234 234 232 229 229 227 226 230 231 224 225
154 154 154 145 152 176 182 186 192 179 182 195 175 183 204 210 196 189 208 214 223 215 193 203 242 244 109 118 198 193 223 252 241 235 254 261 278 314 336 338 338 337 327 309 295 286 267 256 250 244 241 238 234 232 232 232 235 238 241 243 245 247 247 247 246 245 244 243 242 241 241 239 237 236 235 234 233 231 227 226 225 226 229 228 223 227
119 152 179 174 173 186 183 152 117 120 142 186 194 195 201 200 200 204 210 216 219 210 201 220 241 256 163 162 200 214 222 251 265 228 233 238 285 346 1 2 11 7 352 343 332 318 297 276 261 249 243 240 235 235 235 236 239 242 245 246 246 247 247 247 247 245 243 241 239 239 238 237 236 234 232 232 230 227 224 223 224 226 226 224 225 227
94 174 194 191 181 172 127 132 137 146 168 192 193 194 195 193 199 205 217 225 216 179 235 232 230 250 248 196 179 232 238 221 196 219 220 225 283 315 330 340 355 359 353 357 356 346 332 307 280 260 248 239 236 236 236 240 245 247 250 251 249 248 247 247 246 244 242 240 238 237 234 232 232 229 228 228 224 220 218 219 223 227 224 222 222 220
147 190 193 181 149 42 73 139 158 166 175 181 181 186 187 187 195 203 219 229 213 199 242 235 197 235 247 219 198 218 231 220 185 186 210 257 274 282 294 298 301 315 329 338 342 343 339 328 305 272 254 243 239 241 242 246 251 252 254 255 253 252 250 248 246 241 238 237 234 232 228 226 224 222 222 219 214 214 216 217 222 224 222 220 216 212
192 181 169 155 125 42 63 150 163 168 166 171 185 190 189 192 199 205 217 225 215 224 252 259 235 247 252 237 220 220 227 240 235 219 240 258 262 268 280 284 286 296 309 320 325 327 328 326 320 294 265 251 244 245 248 250 252 254 255 256 254 252 250 248 246 240 235 233 230 225 224 221 215 213 217 212 208 213 217 218 220 217 217 220 214 210
220 159 144 143 127 52 55 152 162 170 173 182 193 197 198 201 206 212 219 220 210 234 250 252 255 262 257 220 205 213 223 241 258 258 258 262 263 267 275 280 284 289 297 308 315 317 318 315 311 306 291 274 260 254 252 251 252 253 253 254 254 252 249 248 247 244 238 234 229 222 220 219 211 209 213 213 210 212 215 216 218 217 217 218 216 216
123 134 142 147 143 119 127 150 158 159 160 192 212 209 204 204 208 214 218 210 202 221 237 239 245 256 246 158 176 195 206 229 246 252 258 262 264 267 272 274 278 280 283 291 300 306 312 310 301 293 292 293 282 268 262 254 251 251 250 252 253 251 250 248 247 247 241 235 230 223 219 217 215 213 213 211 212 214 215 214 215 216 215 215 219 224
128 134 150 155 148 141 157 151 143 127 130 229 231 209 197 200 207 213 221 218 212 218 228 226 232 240 169 118 181 192 191 218 232 237 247 254 257 262 268 272 275 276 275 284 292 296 305 311 302 286 281 283 280 272 265 254 250 250 249 250 248 246 247 246 246 247 243 238 233 227 221 215 215 220 220 215 214 216 215 214 214 216 219 221 226 229
138 136 149 158 139 146 175 147 127 149 206 232 226 175 176 193 203 207 218 219 212 216 226 232 243 253 90 134 197 199 203 223 236 242 247 253 257 263 270 272 275 278 279 284 289 290 297 309 303 283 272 270 267 262 256 248 246 243 240 239 238 238 239 241 243 244 243 241 237 230 226 218 214 219 222 221 219 218 217 218 220 223 226 229 232 231
143 137 142 142 118 138 160 138 151 211 227 234 83 144 178 195 202 207 221 225 215 218 231 245 258 261 249 213 202 207 223 230 237 244 248 251 255 261 266 268 271 277 280 281 282 283 289 299 296 280 268 261 256 254 251 247 242 238 236 236 235 234 234 236 239 241 241 240 237 232 228 223 220 220 220 219 220 220 220 222 224 227 230 232 232 229
151 145 131 106 112 127 150 171 191 225 250 232 96 150 187 192 194 205 235 247 230 221 228 239 248 250 247 237 218 220 234 239 244 247 246 246 250 252 256 261 265 271 276 276 276 277 282 287 283 273 263 259 256 253 252 248 241 238 237 238 237 236 235 235 236 238 240 240 239 236 231 227 225 225 224 222 221 222 224 226 228 230 232 231 227 220
163 156 143 144 179 168 169 196 223 315 308 250 208 177 179 173 169 181 222 248 227 213 218 231 241 246 246 243 237 232 236 248 258 254 246 244 248 248 249 254 259 263 268 271 272 275 278 276 269 261 258 258 258 257 257 254 248 244 239 236 237 236 235 236 236 237 240 242 242 241 237 233 229 228 228 228 228 229 230 230 231 230 227 223 217 213
175 172 164 164 195 188 164 192 237 265 262 240 181 149 156 159 163 170 207 251 223 196 207 224 237 241 237 239 238 227 222 244 261 256 250 249 252 253 253 255 258 260 263 266 268 272 274 270 260 257 258 257 259 260 259 258 255 251 246 241 238 236 235 237 237 237 238 240 242 243 242 238 234 231 231 232 232 233 232 230 228 225 221 218 216 214
151 168 169 163 161 175 175 186 206 219 233 172 127 147 158 160 153 143 201 259 195 181 203 215 228 232 226 225 222 202 190 232 246 253 256 256 255 257 261 262 264 265 264 263 265 267 268 264 256 255 257 257 260 261 259 257 255 253 252 248 242 240 239 238 238 238 238 239 241 242 242 240 237 234 233 233 234 233 230 227 224 222 220 219 218 217
148 156 180 177 171 174 185 199 212 231 246 139 151 162 157 153 141 128 212 259 165 188 206 208 218 231 229 223 213 189 187 218 235 252 258 260 261 261 267 271 271 269 263 259 259 259 258 257 255 254 256 257 260 259 255 253 252 251 251 248 243 242 240 239 239 240 240 241 240 241 242 241 239 237 235 235 235 233 230 227 225 224 222 221 219 218
166 184 192 191 181 165 185 212 247 273 204 183 176 151 144 141 141 166 209 188 149 198 212 210 221 233 233 219 202 198 220 229 235 247 255 265 272 270 276 280 272 267 262 257 255 254 254 256 256 254 253 253 253 251 248 246 245 245 245 244 242 240 238 236 237 238 239 241 241 241 243 243 242 240 238 237 237 235 234 232 230 229 227 225 222 219
177 186 195 196 179 160 186 214 283 282 195 160 142 149 149 147 177 206 176 118 140 185 201 202 218 230 225 211 205 215 229 234 237 244 252 263 274 277 278 274 265 262 260 254 249 245 241 240 238 235 235 236 236 237 237 235 234 235 237 237 234 229 226 226 227 229 233 235 236 238 241 243 245 245 243 242 241 240 239 237 235 234 232 229 226 223
173 169 185 197 168 146 183 179 208 270 186 142 131 143 173 176 173 161 151 134 141 153 166 181 199 218 213 211 215 222 230 235 238 244 251 255 259 260 254 245 226 234 245 224 210 208 200 200 206 208 212 217 220 223 223 223 226 227 227 225 216 209 211 212 214 219 224 227 230 233 235 239 243 244 245 245 245 244 244 242 239 237 234 230 228 225
177 175 184 193 171 166 190 187 195 301 153 148 146 166 200 194 158 155 167 176 170 166 168 177 192 214 212 214 222 226 231 236 240 244 249 244 235 229 225 224 232 250 233 193 189 190 183 188 194 195 203 209 211 215 216 216 218 217 212 207 201 196 195 196 201 208 212 218 223 227 230 234 236 239 242 243 244 245 244 243 241 239 235 232 229 227
197 194 178 173 179 186 208 191 167 63 151 164 164 168 183 189 184 171 182 194 196 198 199 195 205 209 195 194 207 215 222 230 231 232 234 230 224 222 223 231 244 244 209 183 182 177 176 190 189 187 197 201 201 206 206 200 196 190 184 178 170 165 167 170 181 192 200 212 220 223 229 232 233 236 239 240 243 245 245 245 244 241 237 233 231 229
195 184 143 122 173 224 284 198 130 99 160 177 185 163 180 191 195 176 186 201 203 203 208 206 199 188 176 175 180 182 185 189 194 199 204 204 206 212 218 223 222 206 185 175 174 175 185 192 189 190 190 183 180 179 173 167 164 157 151 145 138 137 140 144 157 178 208 227 234 235 237 237 237 237 237 239 242 245 245 246 245 244 241 237 234 232
201 174 166 133 150 192 232 188 156 160 180 187 194 188 185 195 202 198 195 200 198 200 203 194 178 171 171 172 172 173 170 165 168 176 178 180 185 189 190 190 186 181 178 179 182 187 191 190 189 185 175 165 163 158 153 150 145 139 139 138 138 144 149 158 179 205 228 240 246 247 247 247 246 243 241 240 241 242 244 244 243 242 241 239 236 235
181 168 176 175 163 179 219 178 159 176 188 192 197 199 196 201 206 207 200 194 193 196 195 185 174 172 175 174 170 171 170 166 168 172 170 171 176 176 174 175 175 176 179 183 187 192 191 186 181 173 165 162 159 154 153 152 148 148 152 155 160 169 175 190 205 215 230 240 247 249 250 252 253 252 252 249 245 244 244 244 245 245 244 243 242 240
140 160 179 178 171 187 258 98 141 158 189 206 205 203 205 208 207 205 200 194 192 193 190 183 178 178 179 176 171 173 177 175 173 173 172 170 170 172 175 175 175 178 182 182 184 189 187 181 176 171 168 167 164 162 164 166 166 168 171 174 181 186 191 202 210 215 226 235 241 246 249 253 255 256 257 255 253 251 248 246 247 249 250 250 248 246
147 174 180 159 185 212 202 155 161 164 197 213 206 202 205 209 206 202 199 195 193 193 190 184 180 180 182 181 178 181 187 187 180 176 175 172 169 171 175 176 179 183 183 182 183 185 184 182 180 179 178 177 177 177 179 181 184 185 187 191 195 196 199 206 210 213 220 225 230 236 239 243 248 251 253 254 253 252 250 248 246 246 246 247 247 246
182 183 168 172 207 214 170 169 183 195 208 206 203 200 200 204 206 205 205 205 201 197 194 191 189 186 185 185 186 188 193 196 191 185 180 176 175 176 176 178 182 184 183 184 185 185 188 189 188 188 190 190 189 189 191 193 196 197 200 203 203 202 206 208 208 210 215 216 219 222 225 230 237 243 247 250 250 249 249 248 247 246 245 244 245 245